[[{"header":{"parameterUnit":"m.s-1","parameterCategory":1,"la1":30.2991,"la2":30.254,"lo1":-89.0895,"lo2":-89.0444,"dy":0.0017,"dx":0.0017,"nx":28,"ny":28,"refTime":"2024-12-22T03:00:00:Z","depth":0,"parameterNumber":2,"parameterNumberName":"U-component_of_WINDS"},"data":[0,0,0,0,0,0,0,0,0,0,0,0,0,0,0,0,0,0,0,0,0,0,0,0,0,0,0,0,0,0,0,0,0,0,0,0,0,0,0,0,0,0,0,0,0,0,0,0,0,0,0,0,0,0,0,0,0,0,-2.4995,-2.4996,0,-2.5104,-2.5105,-2.5106,-2.5041,-2.5037,-2.5034,-2.5031,-2.515,-2.5156,-2.5162,0,0,0,0,0,0,0,0,0,0,0,0,0,-2.4737,-2.4742,-2.4995,-2.4996,-2.4998,-2.5104,-2.5105,-2.5107,-2.5041,-2.5037,-2.5033,-2.503,-2.5148,-2.5155,-2.5162,0,0,0,0,0,0,0,0,0,0,0,0,0,-2.4848,-2.4743,-2.4995,-2.4977,-2.4977,-2.5103,-2.5105,-2.5107,-2.5042,-2.5037,-2.5032,-2.5028,-2.5145,-2.5154,-2.5163,-2.5315,0,0,-2.5191,-2.5195,0,0,0,0,0,0,0,0,-2.4841,-2.4857,-2.4979,-2.4979,-2.4979,-2.5054,-2.5057,-2.5177,-2.5043,-2.5018,-2.5031,-2.5026,-2.5122,-2.5133,-2.5164,-2.532,-2.5325,-2.5192,-2.5198,-2.5202,-2.5204,0,0,0,0,0,0,0,-2.4834,-2.4852,-2.5038,-2.4981,-2.4981,-2.4967,-2.4977,-2.508,-2.5095,-2.5019,-2.5015,-2.5028,-2.5121,-2.5155,-2.5166,-2.5327,-2.5192,-2.52,-2.5206,-2.5209,-2.5616,-2.5621,0,0,0,0,0,0,-2.4827,-2.4846,-2.5035,-2.5041,-2.4897,-2.4975,-2.4987,-2.5035,-2.5094,-2.5098,-2.5032,-2.5025,-2.5142,-2.5156,-2.517,-2.5354,-2.5201,-2.521,-2.5215,-2.5611,-2.5617,-2.5623,0,0,0,0,0,0,-2.4821,-2.4844,-2.503,-2.4943,-2.4965,-2.4984,-2.5039,-2.5039,-2.5073,-2.5104,-2.5107,-2.5064,-2.5139,-2.5157,-2.5279,-2.5357,-2.5214,-2.5222,-2.5605,-2.5613,-2.562,-2.572,0,0,0,0,0,0,-2.4814,-2.4842,-2.4899,-2.4944,-2.497,-2.5136,-2.5043,-2.5045,-2.5088,-2.508,-2.5134,-2.5139,-2.5136,-2.5266,-2.5289,-2.5367,-2.523,-2.5598,-2.5608,-2.5618,-2.571,-2.5731,-2.5748,0,0,0,0,0,-2.4805,-2.4923,-2.4902,-2.4925,-2.504,-2.5141,-2.5156,-2.5149,-2.5095,-2.5153,-2.5172,-2.5137,-2.5344,-2.5279,-2.5304,-2.5386,-2.5593,-2.5605,-2.5617,-2.5702,-2.5727,-2.5748,0,0,0,0,0,0,-2.4888,-2.4929,-2.4906,-2.5042,-2.5088,-2.5129,-2.5202,-2.5175,-2.5239,-2.5229,-2.522,-2.5233,-2.5361,-2.5385,-2.5312,-2.5537,-2.546,-2.5478,-2.5517,-2.5541,-2.5559,-2.5552,-2.5237,0,0,0,0,0,-2.4922,-2.4998,-2.503,-2.5147,-2.5171,-2.5183,-2.5226,-2.5217,-2.5265,-2.5285,-2.5314,-2.5364,-2.5441,-2.5492,-2.5563,-2.5713,-2.5726,-2.5782,-2.5801,-2.5816,-2.5832,-2.5916,-2.5942,-2.5662,-2.5662,-2.5662,0,0,-2.4994,-2.5025,-2.5074,-2.5165,-2.52,-2.5281,-2.52,-2.5289,-2.535,-2.5299,-2.5417,-2.5439,-2.5495,-2.5632,-2.5694,-2.5657,-2.5912,-2.5831,-2.5843,-2.5851,-2.5931,-2.5957,-2.5981,-2.567,-2.5669,-2.5668,0,0,-2.5166,-2.5196,-2.5298,-2.5334,-2.5387,-2.5394,-2.5419,-2.5464,-2.5477,-2.5594,-2.5558,-2.5631,-2.5763,-2.5805,-2.5843,-2.6032,-2.6003,-2.6055,-2.6156,-2.6238,-2.626,-2.6279,-2.6349,-2.6374,-2.6071,-2.6071,-2.6071,0,-2.5249,-2.5368,-2.5354,-2.5446,-2.5489,-2.5444,-2.5549,-2.5586,-2.5661,-2.5692,-2.5648,-2.5813,-2.5847,-2.5995,-2.6041,-2.6072,-2.6103,-2.605,-2.6257,-2.6277,-2.6295,-2.6362,-2.6388,-2.6077,-2.6077,-2.6076,-2.6075,0,-2.5468,-2.5551,-2.5628,-2.5699,-2.575,-2.5848,-2.5852,-2.5905,-2.5892,-2.5904,-2.6025,-2.6064,-2.6144,-2.6178,-2.6166,-2.6325,-2.63,-2.6257,-2.618,-2.6328,-2.6391,-2.6416,-2.6086,-2.6084,-2.6082,-2.6081,0,0,-2.5698,-2.576,-2.5789,-2.5822,-2.5877,-2.5942,-2.6039,-2.6115,-2.6163,-2.6216,-2.6299,-2.6411,-2.6372,-2.6415,-2.6408,-2.6479,-2.663,-2.6427,-2.6428,-2.6466,-2.681,-2.6845,-2.6874,-2.6609,-2.6614,-2.6618,-2.6807,0,-2.5876,-2.6043,-2.6034,-2.6192,-2.627,-2.6229,-2.6314,-2.6359,-2.6373,-2.6443,-2.6459,-2.654,-2.648,-2.6507,-2.6575,-2.6597,-2.6699,-2.6582,-2.669,-2.6694,-2.668,-2.6907,-2.6943,-2.712,-2.6831,-2.6835,-2.6838,0,-2.6105,-2.6165,-2.633,-2.6375,-2.6408,-2.6484,-2.6554,-2.662,-2.6671,-2.6677,-2.6726,-2.6707,-2.6808,-2.6726,-2.6867,-2.6788,-2.6832,-2.6849,-2.6856,-2.6868,-2.6777,-2.6928,-2.7175,-2.7203,-2.6876,-2.6873,-2.687,0,-2.626,-2.6381,-2.6496,-2.6525,-2.6579,-2.6635,-2.666,-2.6706,-2.6753,-2.6815,-2.6846,-2.6919,-2.6961,-2.7019,-2.7022,-2.6962,-2.7165,-2.7083,-2.7176,-2.7176,-2.7223,-2.722,-2.7484,-2.7246,-2.7246,-2.7245,-2.7245,0,-2.6461,-2.6564,-2.6566,-2.6638,-2.6753,-2.6743,-2.6858,-2.6879,-2.692,-2.6996,-2.6965,-2.7038,-2.7035,-2.7111,-2.7113,-2.7231,-2.725,-2.7259,-2.7259,-2.7264,-2.7263,-2.7294,-2.7283,-2.7252,-2.7251,-2.7249,-2.7248,0,-2.6654,-2.6659,-2.6782,-2.6823,-2.6836,-2.692,-2.6956,-2.7025,-2.7036,-2.7133,-2.7156,-2.7174,-2.7261,-2.7268,-2.7369,-2.737,-2.7515,-2.75,-2.7497,-2.7496,-2.7589,-2.7581,-2.7884,-2.7924,-2.7657,-2.766,-2.7662,0,-2.6783,-2.6862,-2.6911,-2.6959,-2.6987,-2.7065,-2.7112,-2.7106,-2.7157,-2.7221,-2.7283,-2.7366,-2.7433,-2.7574,-2.7598,-2.7675,-2.7664,-2.7765,-2.7676,-2.7679,-2.767,-2.7666,-2.7675,-2.7783,-2.7786,-2.7788,-2.779,0,-2.7013,-2.7012,-2.708,-2.715,-2.7207,-2.7263,-2.7314,-2.7356,-2.7356,-2.7416,-2.7503,-2.7554,-2.7657,-2.7741,-2.7817,-2.7846,-2.7821,-2.7818,-2.7844,-2.7851,-2.7847,-2.7853,-2.7548,-2.7812,-2.7809,-2.7808,-2.7807,-2.7806,-2.718,-2.7249,-2.7294,-2.7373,-2.741,-2.7459,-2.7527,-2.7545,-2.7617,-2.7699,-2.7691,-2.7789,-2.7839,-2.7938,-2.7973,-2.8051,-2.8018,-2.8055,-2.8065,-2.8075,-2.8086,-2.7832,-2.8065,-2.8064,-2.8064,-2.8063,-2.8063,0,-2.7411,-2.7438,-2.751,-2.7582,-2.7645,-2.7611,-2.7667,-2.7722,-2.7807,-2.7855,-2.7921,-2.8023,-2.8104,-2.8134,-2.8215,-2.8272,-2.8262,-2.8294,-2.8291,-2.8299,-2.811,-2.808,-2.83,-2.83,-2.83,-2.83,-2.83,-2.83,-2.7539,-2.7654,-2.7658,-2.7793,-2.782,-2.7913,-2.7949,-2.7995,-2.8033,-2.8148,-2.8215,-2.8232,-2.8275,-2.8358,-2.8432,-2.8439,-2.8472,-2.8509,-2.8512,-2.8335,-2.8312,-2.8289,-2.8262,-2.8516,-2.8516,-2.8695,-2.8696,-2.8697]},{"header":{"parameterUnit":"m.s-1","parameterCategory":1,"la1":30.2991,"la2":30.254,"lo1":-89.0895,"lo2":-89.0444,"dy":0.0017,"dx":0.0017,"nx":28,"ny":28,"refTime":"2024-12-22T03:00:00:Z","depth":0,"parameterNumber":3,"parameterNumberName":"V-component_of_WINDS"},"data":[0,0,0,0,0,0,0,0,0,0,0,0,0,0,0,0,0,0,0,0,0,0,0,0,0,0,0,0,0,0,0,0,0,0,0,0,0,0,0,0,0,0,0,0,0,0,0,0,0,0,0,0,0,0,0,0,0,0,-2.5921,-2.5923,0,-2.6038,-2.604,-2.6041,-2.6037,-2.6035,-2.6033,-2.6032,-2.615,-2.6154,-2.6159,0,0,0,0,0,0,0,0,0,0,0,0,0,-2.5693,-2.5697,-2.5921,-2.5923,-2.5924,-2.6038,-2.604,-2.6041,-2.6037,-2.6035,-2.6033,-2.6031,-2.6148,-2.6154,-2.6159,0,0,0,0,0,0,0,0,0,0,0,0,0,-2.5799,-2.5698,-2.5921,-2.5936,-2.5938,-2.6038,-2.604,-2.6042,-2.6037,-2.6035,-2.6033,-2.603,-2.6146,-2.6153,-2.616,-2.6252,0,0,-2.6181,-2.6184,0,0,0,0,0,0,0,0,-2.5793,-2.5807,-2.5932,-2.5935,-2.5938,-2.602,-2.6002,-2.6112,-2.6038,-2.6,-2.6032,-2.6029,-2.6109,-2.6119,-2.6146,-2.6257,-2.6262,-2.6182,-2.6186,-2.6189,-2.6191,0,0,0,0,0,0,0,-2.5786,-2.5802,-2.5967,-2.5934,-2.5938,-2.5936,-2.5949,-2.6023,-2.6066,-2.6003,-2.6003,-2.6017,-2.611,-2.6139,-2.6148,-2.6264,-2.6182,-2.6188,-2.6192,-2.6195,-2.6457,-2.646,0,0,0,0,0,0,-2.5775,-2.5796,-2.5964,-2.5971,-2.5858,-2.5942,-2.5956,-2.5996,-2.6066,-2.6074,-2.6019,-2.6016,-2.6128,-2.614,-2.6153,-2.6265,-2.6189,-2.6196,-2.62,-2.6454,-2.6458,-2.6461,0,0,0,0,0,0,-2.577,-2.579,-2.5959,-2.5884,-2.5905,-2.5949,-2.5994,-2.6,-2.6029,-2.6078,-2.6085,-2.6041,-2.6127,-2.6143,-2.6227,-2.6269,-2.6199,-2.6205,-2.6451,-2.6455,-2.6459,-2.6491,0,0,0,0,0,0,-2.5764,-2.5789,-2.5824,-2.5885,-2.5909,-2.6033,-2.5997,-2.6004,-2.6042,-2.6039,-2.61,-2.6108,-2.6126,-2.6217,-2.6234,-2.6277,-2.6211,-2.6447,-2.6453,-2.6458,-2.6486,-2.6495,-2.6503,0,0,0,0,0,-2.5756,-2.5828,-2.5826,-2.5846,-2.5955,-2.6035,-2.6049,-2.6069,-2.6045,-2.6081,-2.6112,-2.6106,-2.6261,-2.6226,-2.6245,-2.6291,-2.6445,-2.6451,-2.6457,-2.6482,-2.6493,-2.6503,0,0,0,0,0,0,-2.5771,-2.5836,-2.5835,-2.5929,-2.5977,-2.6034,-2.608,-2.608,-2.6135,-2.6131,-2.6152,-2.6166,-2.6251,-2.6279,-2.6238,-2.6383,-2.635,-2.636,-2.6362,-2.6373,-2.6382,-2.6374,-2.6216,0,0,0,0,0,-2.5785,-2.5846,-2.5899,-2.5977,-2.6001,-2.6037,-2.6072,-2.6083,-2.6133,-2.6153,-2.619,-2.6239,-2.6298,-2.6337,-2.6395,-2.649,-2.6503,-2.6531,-2.6539,-2.6546,-2.6555,-2.6608,-2.6621,-2.6481,-2.6481,-2.6481,0,0,-2.5816,-2.5859,-2.5895,-2.5981,-2.6019,-2.6081,-2.6054,-2.612,-2.6166,-2.6163,-2.6246,-2.6274,-2.633,-2.642,-2.6462,-2.6446,-2.6597,-2.6554,-2.6559,-2.6565,-2.6616,-2.6629,-2.6641,-2.6485,-2.6485,-2.6484,0,0,-2.5903,-2.5941,-2.6011,-2.6049,-2.6108,-2.6131,-2.6148,-2.6206,-2.6225,-2.6308,-2.6308,-2.6362,-2.6464,-2.6504,-2.6537,-2.6639,-2.6636,-2.6657,-2.6702,-2.6754,-2.6765,-2.6775,-2.6812,-2.6825,-2.6665,-2.6666,-2.6666,0,-2.5933,-2.6026,-2.6046,-2.6113,-2.6151,-2.6152,-2.6222,-2.6259,-2.6333,-2.6358,-2.634,-2.6469,-2.6506,-2.6606,-2.6631,-2.6657,-2.6677,-2.6651,-2.6762,-2.6772,-2.6781,-2.6817,-2.6831,-2.6668,-2.6668,-2.6667,-2.6667,0,-2.6061,-2.6126,-2.6175,-2.6247,-2.629,-2.6358,-2.6388,-2.6429,-2.6436,-2.6461,-2.6546,-2.659,-2.6657,-2.6681,-2.6688,-2.6782,-2.6771,-2.6757,-2.6724,-2.6797,-2.6831,-2.6844,-2.6671,-2.667,-2.667,-2.6669,0,0,-2.6162,-2.6244,-2.6262,-2.6295,-2.6359,-2.641,-2.6477,-2.6543,-2.6579,-2.6629,-2.6687,-2.6773,-2.6761,-2.6799,-2.681,-2.6855,-2.6934,-2.6835,-2.6837,-2.6853,-2.7041,-2.7052,-2.7068,-2.6931,-2.6934,-2.6936,-2.7037,0,-2.6256,-2.6379,-2.6398,-2.6505,-2.6565,-2.6566,-2.6626,-2.6671,-2.6696,-2.675,-2.6777,-2.6839,-2.6817,-2.684,-2.6884,-2.6915,-2.6972,-2.6908,-2.6986,-2.6988,-2.6973,-2.7085,-2.7098,-2.719,-2.705,-2.7052,-2.7054,0,-2.6384,-2.6439,-2.6552,-2.6608,-2.6634,-2.6687,-2.675,-2.6801,-2.6853,-2.6868,-2.691,-2.6916,-2.6986,-2.6949,-2.7047,-2.7002,-2.7035,-2.7055,-2.7059,-2.7068,-2.7026,-2.7099,-2.722,-2.7235,-2.7075,-2.7073,-2.7071,0,-2.6447,-2.6549,-2.663,-2.6658,-2.6726,-2.6763,-2.6793,-2.6842,-2.6881,-2.6935,-2.696,-2.7021,-2.7055,-2.7101,-2.7124,-2.7095,-2.722,-2.7184,-2.7234,-2.7234,-2.7262,-2.726,-2.7392,-2.7281,-2.7281,-2.728,-2.728,0,-2.6552,-2.6621,-2.666,-2.671,-2.6788,-2.6809,-2.6885,-2.6914,-2.6957,-2.7013,-2.7017,-2.7068,-2.7094,-2.7149,-2.7167,-2.7245,-2.726,-2.7274,-2.7278,-2.7275,-2.7273,-2.7298,-2.7292,-2.7284,-2.7283,-2.7283,-2.7282,0,-2.6637,-2.6666,-2.6754,-2.6811,-2.6827,-2.6882,-2.693,-2.6979,-2.7003,-2.7073,-2.709,-2.7128,-2.7194,-2.722,-2.73,-2.7312,-2.7402,-2.7401,-2.7385,-2.7387,-2.7436,-2.7432,-2.7589,-2.7611,-2.7484,-2.7486,-2.7486,0,-2.6702,-2.6756,-2.6819,-2.6856,-2.6888,-2.6948,-2.6988,-2.701,-2.7051,-2.7113,-2.7154,-2.722,-2.7274,-2.7378,-2.7412,-2.7474,-2.7474,-2.7525,-2.7484,-2.7479,-2.7477,-2.7474,-2.748,-2.7533,-2.7535,-2.7536,-2.7536,0,-2.6816,-2.6828,-2.6885,-2.6947,-2.6995,-2.7045,-2.7093,-2.7123,-2.7153,-2.7199,-2.7266,-2.7308,-2.739,-2.7455,-2.7518,-2.7548,-2.7548,-2.7549,-2.7564,-2.7562,-2.7551,-2.7559,-2.7408,-2.7546,-2.7545,-2.7544,-2.7544,-2.7543,-2.6894,-2.6942,-2.6994,-2.7058,-2.7097,-2.7142,-2.7191,-2.7221,-2.7278,-2.7347,-2.7356,-2.7429,-2.7478,-2.7563,-2.7596,-2.7652,-2.7639,-2.7661,-2.7666,-2.7672,-2.7676,-2.7541,-2.7663,-2.7663,-2.7663,-2.7663,-2.7663,0,-2.7009,-2.7043,-2.7101,-2.7169,-2.7219,-2.7214,-2.7268,-2.731,-2.7374,-2.7421,-2.7474,-2.7551,-2.7614,-2.7653,-2.7717,-2.7755,-2.7756,-2.7771,-2.7769,-2.7776,-2.7683,-2.7664,-2.7768,-2.7768,-2.7768,-2.7768,-2.7768,-2.7768,-2.7075,-2.7157,-2.7174,-2.7275,-2.7307,-2.7379,-2.741,-2.7452,-2.7489,-2.7576,-2.7629,-2.7654,-2.7698,-2.7764,-2.7822,-2.7832,-2.7855,-2.7871,-2.788,-2.7793,-2.7782,-2.7772,-2.7755,-2.7876,-2.7876,-2.7969,-2.7969,-2.797]}]]